Time,TemperatureF,DewpointF,PressureIn,WindDirection,WindDirectionDegrees,WindSpeedMPH,WindSpeedGustMPH,Humidity,HourlyPrecipIn,Conditions,Clouds,dailyrainin,SoftwareType,DateUTC
2013-02-18 00:04:00,61.3,53.7,29.96,SE,139,7.0,-999.0,76,0.00,,,0.00,Wunderground v.1.15,2013-02-18 06:04:00,
2013-02-18 00:10:00,61.3,53.7,29.96,SE,136,7.0,-999.0,76,0.00,,,0.00,Wunderground v.1.15,2013-02-18 06:10:00,
2013-02-18 00:16:00,61.2,53.6,29.95,SE,139,6.0,-999.0,76,0.00,,,0.00,Wunderground v.1.15,2013-02-18 06:16:00,
2013-02-18 00:22:00,61.2,53.9,29.95,SSE,167,8.0,-999.0,77,0.00,,,0.00,Wunderground v.1.15,2013-02-18 06:22:00,
2013-02-18 00:28:00,61.1,53.8,29.95,ESE,113,8.0,-999.0,77,0.00,,,0.00,Wunderground v.1.15,2013-02-18 06:28:00,
2013-02-18 00:34:00,61.0,53.7,29.95,SSE,165,8.0,-999.0,77,0.00,,,0.00,Wunderground v.1.15,2013-02-18 06:34:00,
2013-02-18 00:39:00,60.9,53.6,29.95,SSE,151,7.0,-999.0,77,0.00,,,0.00,Wunderground v.1.15,2013-02-18 06:39:00,
2013-02-18 00:46:00,60.8,53.9,29.95,SE,134,6.0,-999.0,78,0.00,,,0.00,Wunderground v.1.15,2013-02-18 06:46:00,
2013-02-18 00:52:00,60.8,53.9,29.95,SE,129,6.0,-999.0,78,0.00,,,0.00,Wunderground v.1.15,2013-02-18 06:52:00,
2013-02-18 00:58:00,60.7,53.8,29.94,SE,139,6.0,-999.0,78,0.00,,,0.00,Wunderground v.1.15,2013-02-18 06:58:00,
2013-02-18 01:04:00,60.7,53.8,29.94,SE,134,6.0,-999.0,78,0.00,,,0.00,Wunderground v.1.15,2013-02-18 07:04:00,
2013-02-18 01:10:00,60.6,54.0,29.94,SSE,153,6.0,-999.0,79,0.00,,,0.00,Wunderground v.1.15,2013-02-18 07:10:00,
2013-02-18 01:16:00,60.6,54.0,29.93,SSE,156,6.0,-999.0,79,0.00,,,0.00,Wunderground v.1.15,2013-02-18 07:16:00,
2013-02-18 01:22:00,60.6,54.0,29.93,South,187,7.0,-999.0,79,0.00,,,0.00,Wunderground v.1.15,2013-02-18 07:22:00,
2013-02-18 01:27:00,60.6,54.0,29.93,SE,141,7.0,-999.0,79,0.00,,,0.00,Wunderground v.1.15,2013-02-18 07:27:00,
2013-02-18 01:34:00,60.6,54.0,29.92,SW,217,7.0,-999.0,79,0.00,,,0.00,Wunderground v.1.15,2013-02-18 07:34:00,
2013-02-18 01:40:00,60.6,54.0,29.93,SSE,150,7.0,-999.0,79,0.00,,,0.00,Wunderground v.1.15,2013-02-18 07:40:00,
2013-02-18 01:46:00,60.7,54.5,29.93,SSW,203,7.0,-999.0,80,0.00,,,0.00,Wunderground v.1.15,2013-02-18 07:46:00,
2013-02-18 01:52:00,60.7,54.5,29.92,SSW,195,7.0,-999.0,80,0.00,,,0.00,Wunderground v.1.15,2013-02-18 07:52:00,
2013-02-18 01:58:00,60.7,54.5,29.92,ESE,121,8.0,-999.0,80,0.00,,,0.00,Wunderground v.1.15,2013-02-18 07:58:00,
2013-02-18 02:04:00,60.8,54.6,29.92,SSW,198,7.0,-999.0,80,0.00,,,0.00,Wunderground v.1.15,2013-02-18 08:04:00,
2013-02-18 02:10:00,60.8,54.6,29.92,SSE,158,5.0,-999.0,80,0.00,,,0.00,Wunderground v.1.15,2013-02-18 08:10:00,
2013-02-18 02:15:00,60.9,54.7,29.92,SSW,208,6.0,-999.0,80,0.00,,,0.00,Wunderground v.1.15,2013-02-18 08:15:00,
2013-02-18 02:22:00,60.9,54.7,29.92,SSE,149,7.0,-999.0,80,0.00,,,0.00,Wunderground v.1.15,2013-02-18 08:22:00,
2013-02-18 02:28:00,60.9,54.7,29.91,SSE,165,6.0,-999.0,80,0.00,,,0.00,Wunderground v.1.15,2013-02-18 08:28:00,
2013-02-18 02:33:00,61.0,54.8,29.91,SW,225,6.0,-999.0,80,0.00,,,0.00,Wunderground v.1.15,2013-02-18 08:33:00,
2013-02-18 02:40:00,61.0,54.8,29.91,SSE,149,5.0,-999.0,80,0.00,,,0.00,Wunderground v.1.15,2013-02-18 08:40:00,
2013-02-18 02:46:00,61.1,54.9,29.91,South,176,6.0,-999.0,80,0.00,,,0.00,Wunderground v.1.15,2013-02-18 08:46:00,
2013-02-18 02:52:00,61.1,54.9,29.91,South,181,7.0,-999.0,80,0.00,,,0.00,Wunderground v.1.15,2013-02-18 08:52:00,
2013-02-18 02:58:00,61.3,55.4,29.90,WSW,240,6.0,-999.0,81,0.00,,,0.00,Wunderground v.1.15,2013-02-18 08:58:00,
2013-02-18 03:04:00,61.3,55.4,29.90,SSW,198,7.0,-999.0,81,0.00,,,0.00,Wunderground v.1.15,2013-02-18 09:04:00,
2013-02-18 03:10:00,61.4,55.5,29.90,SSE,148,7.0,-999.0,81,0.00,,,0.00,Wunderground v.1.15,2013-02-18 09:10:00,
2013-02-18 03:16:00,61.4,55.5,29.90,South,183,6.0,-999.0,81,0.00,,,0.00,Wunderground v.1.15,2013-02-18 09:16:00,
2013-02-18 03:21:00,61.4,55.5,29.90,SSE,153,6.0,-999.0,81,0.00,,,0.00,Wunderground v.1.15,2013-02-18 09:21:00,
2013-02-18 03:28:00,61.4,55.5,29.90,SSE,165,6.0,-999.0,81,0.00,,,0.00,Wunderground v.1.15,2013-02-18 09:28:00,
2013-02-18 03:34:00,61.4,55.5,29.90,SW,220,7.0,-999.0,81,0.00,,,0.00,Wunderground v.1.15,2013-02-18 09:34:00,
2013-02-18 03:40:00,61.4,55.5,29.90,SW,221,7.0,-999.0,81,0.00,,,0.00,Wunderground v.1.15,2013-02-18 09:40:00,
2013-02-18 03:45:00,61.4,55.5,29.90,SSE,166,5.0,-999.0,81,0.00,,,0.00,Wunderground v.1.15,2013-02-18 09:45:00,
2013-02-18 03:52:00,61.4,55.5,29.90,SSW,211,6.0,-999.0,81,0.00,,,0.00,Wunderground v.1.15,2013-02-18 09:52:00,
2013-02-18 03:58:00,61.3,55.4,29.90,SSE,155,6.0,-999.0,81,0.00,,,0.00,Wunderground v.1.15,2013-02-18 09:58:00,
2013-02-18 04:04:00,61.3,55.8,29.90,South,176,6.0,-999.0,82,0.00,,,0.00,Wunderground v.1.15,2013-02-18 10:04:00,
2013-02-18 04:10:00,61.3,55.8,29.90,SE,143,6.0,-999.0,82,0.00,,,0.00,Wunderground v.1.15,2013-02-18 10:10:00,
2013-02-18 04:16:00,61.3,55.8,29.90,SSE,154,5.0,-999.0,82,0.00,,,0.00,Wunderground v.1.15,2013-02-18 10:16:00,
2013-02-18 04:22:00,61.3,55.8,29.90,SSE,152,6.0,-999.0,82,0.00,,,0.00,Wunderground v.1.15,2013-02-18 10:22:00,
2013-02-18 04:28:00,61.2,55.7,29.89,South,169,6.0,-999.0,82,0.00,,,0.00,Wunderground v.1.15,2013-02-18 10:28:00,
2013-02-18 04:34:00,61.2,55.7,29.89,SSW,201,6.0,-999.0,82,0.00,,,0.00,Wunderground v.1.15,2013-02-18 10:34:00,
2013-02-18 04:40:00,61.2,55.7,29.89,SE,132,5.0,-999.0,82,0.00,,,0.00,Wunderground v.1.15,2013-02-18 10:40:00,
2013-02-18 04:46:00,61.2,56.0,29.89,SSE,158,5.0,-999.0,83,0.00,,,0.00,Wunderground v.1.15,2013-02-18 10:46:00,
2013-02-18 04:51:00,61.2,56.0,29.89,SSW,208,6.0,-999.0,83,0.00,,,0.00,Wunderground v.1.15,2013-02-18 10:51:00,
2013-02-18 04:58:00,61.2,56.0,29.89,South,173,5.0,-999.0,83,0.00,,,0.00,Wunderground v.1.15,2013-02-18 10:58:00,
2013-02-18 05:04:00,61.3,56.1,29.89,ESE,114,4.0,-999.0,83,0.00,,,0.00,Wunderground v.1.15,2013-02-18 11:04:00,
2013-02-18 05:10:00,61.3,56.1,29.90,SSE,149,5.0,-999.0,83,0.00,,,0.00,Wunderground v.1.15,2013-02-18 11:10:00,
2013-02-18 05:16:00,61.3,56.1,29.90,SE,135,5.0,-999.0,83,0.00,,,0.00,Wunderground v.1.15,2013-02-18 11:16:00,
2013-02-18 05:22:00,61.4,56.2,29.89,South,170,6.0,-999.0,83,0.00,,,0.00,Wunderground v.1.15,2013-02-18 11:22:00,
2013-02-18 05:28:00,61.4,56.2,29.89,SW,235,5.0,-999.0,83,0.00,,,0.00,Wunderground v.1.15,2013-02-18 11:28:00,
2013-02-18 05:34:00,61.4,56.2,29.89,South,188,5.0,-999.0,83,0.00,,,0.00,Wunderground v.1.15,2013-02-18 11:34:00,
2013-02-18 05:39:00,61.4,56.2,29.89,South,173,5.0,-999.0,83,0.00,,,0.00,Wunderground v.1.15,2013-02-18 11:39:00,
2013-02-18 05:46:00,61.4,56.2,29.89,South,174,5.0,-999.0,83,0.00,,,0.00,Wunderground v.1.15,2013-02-18 11:46:00,
2013-02-18 05:52:00,61.4,56.5,29.89,ESE,114,5.0,-999.0,84,0.00,,,0.00,Wunderground v.1.15,2013-02-18 11:52:00,
2013-02-18 05:58:00,61.3,56.4,29.89,South,177,5.0,-999.0,84,0.00,,,0.00,Wunderground v.1.15,2013-02-18 11:58:00,
2013-02-18 06:03:00,61.3,56.4,29.89,West,280,5.0,-999.0,84,0.00,,,0.00,Wunderground v.1.15,2013-02-18 12:03:00,
2013-02-18 06:10:00,61.3,56.4,29.89,SE,127,5.0,-999.0,84,0.00,,,0.00,Wunderground v.1.15,2013-02-18 12:10:00,
2013-02-18 06:16:00,61.3,56.4,29.89,SE,139,6.0,-999.0,84,0.00,,,0.00,Wunderground v.1.15,2013-02-18 12:16:00,
2013-02-18 06:22:00,61.3,56.4,29.89,SE,143,5.0,-999.0,84,0.00,,,0.00,Wunderground v.1.15,2013-02-18 12:22:00,
2013-02-18 06:27:00,61.3,56.8,29.89,SW,229,5.0,-999.0,85,0.00,,,0.00,Wunderground v.1.15,2013-02-18 12:27:00,
2013-02-18 06:34:00,61.4,56.8,29.89,South,190,5.0,-999.0,85,0.00,,,0.00,Wunderground v.1.15,2013-02-18 12:34:00,
2013-02-18 06:40:00,61.4,56.8,29.89,SSE,155,5.0,-999.0,85,0.00,,,0.00,Wunderground v.1.15,2013-02-18 12:40:00,
2013-02-18 06:45:00,61.4,56.8,29.88,SSE,155,6.0,-999.0,85,0.00,,,0.00,Wunderground v.1.15,2013-02-18 12:45:00,
2013-02-18 06:56:00,61.4,56.8,29.89,SSE,165,4.0,-999.0,85,0.00,,,0.00,Wunderground v.1.15,2013-02-18 12:56:00,
2013-02-18 07:04:00,61.4,56.8,29.88,SE,135,4.0,-999.0,85,0.00,,,0.00,Wunderground v.1.15,2013-02-18 13:04:00,
2013-02-18 07:10:00,61.5,57.3,29.88,SSE,162,5.0,-999.0,86,0.00,,,0.00,Wunderground v.1.15,2013-02-18 13:10:00,
2013-02-18 07:16:00,61.5,57.3,29.88,South,174,6.0,-999.0,86,0.00,,,0.00,Wunderground v.1.15,2013-02-18 13:16:00,
2013-02-18 07:22:00,61.6,57.4,29.88,SE,141,5.0,-999.0,86,0.00,,,0.00,Wunderground v.1.15,2013-02-18 13:22:00,
2013-02-18 07:28:00,61.6,57.4,29.89,South,191,4.0,-999.0,86,0.00,,,0.00,Wunderground v.1.15,2013-02-18 13:28:00,
2013-02-18 07:34:00,61.6,57.4,29.89,SSE,153,4.0,-999.0,86,0.00,,,0.00,Wunderground v.1.15,2013-02-18 13:34:00,
2013-02-18 07:40:00,61.6,57.4,29.89,SSW,207,5.0,-999.0,86,0.00,,,0.00,Wunderground v.1.15,2013-02-18 13:40:00,
2013-02-18 07:46:00,61.6,57.7,29.89,South,183,5.0,-999.0,87,0.00,,,0.00,Wunderground v.1.15,2013-02-18 13:46:00,
2013-02-18 07:51:00,61.7,57.8,29.89,SE,125,5.0,-999.0,87,0.00,,,0.00,Wunderground v.1.15,2013-02-18 13:51:00,
2013-02-18 07:58:00,61.8,57.9,29.89,South,179,5.0,-999.0,87,0.00,,,0.00,Wunderground v.1.15,2013-02-18 13:58:00,
2013-02-18 08:04:00,61.8,57.9,29.89,ESE,122,4.0,-999.0,87,0.00,,,0.00,Wunderground v.1.15,2013-02-18 14:04:00,
2013-02-18 08:10:00,61.9,58.0,29.89,South,176,6.0,-999.0,87,0.00,,,0.00,Wunderground v.1.15,2013-02-18 14:10:00,
2013-02-18 08:16:00,62.0,58.1,29.90,SE,128,6.0,-999.0,87,0.00,,,0.00,Wunderground v.1.15,2013-02-18 14:16:00,
2013-02-18 08:22:00,62.0,58.1,29.90,NNE,16,5.0,-999.0,87,0.00,,,0.00,Wunderground v.1.15,2013-02-18 14:22:00,
2013-02-18 08:28:00,62.1,58.2,29.91,South,186,4.0,-999.0,87,0.00,,,0.00,Wunderground v.1.15,2013-02-18 14:28:00,
2013-02-18 08:34:00,62.1,58.2,29.92,SSE,158,4.0,-999.0,87,0.00,,,0.00,Wunderground v.1.15,2013-02-18 14:34:00,
2013-02-18 08:39:00,62.1,58.5,29.92,South,190,5.0,-999.0,88,0.00,,,0.00,Wunderground v.1.15,2013-02-18 14:39:00,
2013-02-18 08:46:00,62.2,58.6,29.92,SE,146,5.0,-999.0,88,0.00,,,0.00,Wunderground v.1.15,2013-02-18 14:46:00,
2013-02-18 08:52:00,62.3,58.4,29.92,SW,224,5.0,-999.0,87,0.00,,,0.00,Wunderground v.1.15,2013-02-18 14:52:00,
2013-02-18 08:58:00,62.4,58.5,29.92,SSW,205,5.0,-999.0,87,0.00,,,0.00,Wunderground v.1.15,2013-02-18 14:58:00,
2013-02-18 09:03:00,62.5,58.6,29.92,West,267,6.0,-999.0,87,0.00,,,0.00,Wunderground v.1.15,2013-02-18 15:03:00,
2013-02-18 09:10:00,62.7,58.8,29.92,SE,141,5.0,-999.0,87,0.00,,,0.00,Wunderground v.1.15,2013-02-18 15:10:00,
2013-02-18 09:16:00,62.9,59.0,29.93,SSE,166,4.0,-999.0,87,0.00,,,0.00,Wunderground v.1.15,2013-02-18 15:16:00,
2013-02-18 09:22:00,63.1,59.2,29.93,WSW,252,4.0,-999.0,87,0.00,,,0.00,Wunderground v.1.15,2013-02-18 15:22:00,
2013-02-18 09:27:00,63.2,59.3,29.93,West,278,5.0,-999.0,87,0.00,,,0.00,Wunderground v.1.15,2013-02-18 15:27:00,
2013-02-18 09:34:00,63.2,58.9,29.93,WSW,245,4.0,-999.0,86,0.00,,,0.00,Wunderground v.1.15,2013-02-18 15:34:00,
2013-02-18 09:40:00,63.3,59.0,29.93,SE,138,5.0,-999.0,86,0.00,,,0.00,Wunderground v.1.15,2013-02-18 15:40:00,
2013-02-18 09:45:00,63.4,59.1,29.94,SSE,159,4.0,-999.0,86,0.00,,,0.00,Wunderground v.1.15,2013-02-18 15:45:00,
2013-02-18 09:52:00,63.5,59.2,29.94,WSW,246,4.0,-999.0,86,0.00,,,0.00,Wunderground v.1.15,2013-02-18 15:52:00,
2013-02-18 09:58:00,63.7,59.4,29.94,SSW,207,3.0,-999.0,86,0.00,,,0.00,Wunderground v.1.15,2013-02-18 15:58:00,
2013-02-18 10:04:00,63.7,59.4,29.94,SW,229,3.0,-999.0,86,0.00,,,0.00,Wunderground v.1.15,2013-02-18 16:04:00,
2013-02-18 10:10:00,63.7,59.4,29.94,SW,229,3.0,-999.0,86,0.00,,,0.00,Wunderground v.1.15,2013-02-18 16:10:00,
2013-02-18 10:16:00,64.0,59.7,29.94,WSW,239,2.0,-999.0,86,0.00,,,0.00,Wunderground v.1.15,2013-02-18 16:16:00,
2013-02-18 10:22:00,64.1,59.5,29.95,WSW,258,4.0,-999.0,85,0.00,,,0.00,Wunderground v.1.15,2013-02-18 16:22:00,
2013-02-18 10:28:00,64.4,59.8,29.95,SW,231,4.0,-999.0,85,0.00,,,0.00,Wunderground v.1.15,2013-02-18 16:28:00,
2013-02-18 10:34:00,64.8,59.9,29.95,SW,221,4.0,-999.0,84,0.00,,,0.00,Wunderground v.1.15,2013-02-18 16:34:00,
2013-02-18 10:40:00,65.4,60.1,29.95,WSW,253,3.0,-999.0,83,0.00,,,0.00,Wunderground v.1.15,2013-02-18 16:40:00,
2013-02-18 10:46:00,65.8,60.2,29.95,WSW,249,3.0,-999.0,82,0.00,,,0.00,Wunderground v.1.15,2013-02-18 16:46:00,
2013-02-18 10:52:00,66.2,60.2,29.95,SSW,198,4.0,-999.0,81,0.00,,,0.00,Wunderground v.1.15,2013-02-18 16:52:00,
2013-02-18 10:58:00,66.4,60.4,29.95,SE,135,5.0,-999.0,81,0.00,,,0.00,Wunderground v.1.15,2013-02-18 16:58:00,
2013-02-18 11:04:00,66.8,60.4,29.95,WSW,243,4.0,-999.0,80,0.00,,,0.00,Wunderground v.1.15,2013-02-18 17:04:00,
2013-02-18 11:09:00,67.1,60.4,29.95,South,186,4.0,-999.0,79,0.00,,,0.00,Wunderground v.1.15,2013-02-18 17:09:00,
2013-02-18 11:16:00,67.4,60.3,29.95,WSW,244,5.0,-999.0,78,0.00,,,0.00,Wunderground v.1.15,2013-02-18 17:16:00,
2013-02-18 11:22:00,67.9,60.4,29.95,WSW,243,4.0,-999.0,77,0.00,,,0.00,Wunderground v.1.15,2013-02-18 17:22:00,
2013-02-18 11:28:00,68.3,60.4,29.95,WSW,239,4.0,-999.0,76,0.00,,,0.00,Wunderground v.1.15,2013-02-18 17:28:00,
2013-02-18 11:33:00,69.1,60.5,29.94,SSW,205,4.0,-999.0,74,0.00,,,0.00,Wunderground v.1.15,2013-02-18 17:33:00,
2013-02-18 11:40:00,69.7,61.0,29.94,SW,214,5.0,-999.0,74,0.00,,,0.00,Wunderground v.1.15,2013-02-18 17:40:00,
2013-02-18 11:46:00,70.2,60.4,29.93,SW,225,5.0,-999.0,71,0.00,,,0.00,Wunderground v.1.15,2013-02-18 17:46:00,
2013-02-18 11:52:00,69.7,60.3,29.93,West,264,6.0,-999.0,72,0.00,,,0.00,Wunderground v.1.15,2013-02-18 17:52:00,
2013-02-18 11:57:00,69.8,60.0,29.93,West,272,6.0,-999.0,71,0.00,,,0.00,Wunderground v.1.15,2013-02-18 17:57:00,
2013-02-18 12:04:00,69.9,60.5,29.92,SW,226,5.0,-999.0,72,0.00,,,0.00,Wunderground v.1.15,2013-02-18 18:04:00,
2013-02-18 12:10:00,71.0,60.7,29.91,WSW,244,4.0,-999.0,70,0.00,,,0.00,Wunderground v.1.15,2013-02-18 18:10:00,
2013-02-18 12:16:00,71.1,60.0,29.91,SW,221,4.0,-999.0,68,0.00,,,0.00,Wunderground v.1.15,2013-02-18 18:16:00,
2013-02-18 12:22:00,71.5,60.4,29.90,WSW,242,4.0,-999.0,68,0.00,,,0.00,Wunderground v.1.15,2013-02-18 18:22:00,
2013-02-18 12:27:00,72.0,60.0,29.90,West,266,5.0,-999.0,66,0.00,,,0.00,Wunderground v.1.15,2013-02-18 18:27:00,
2013-02-18 12:34:00,72.1,60.1,29.90,WSW,250,5.0,-999.0,66,0.00,,,0.00,Wunderground v.1.15,2013-02-18 18:34:00,
2013-02-18 12:40:00,72.5,59.6,29.90,West,274,6.0,-999.0,64,0.00,,,0.00,Wunderground v.1.15,2013-02-18 18:40:00,
2013-02-18 12:45:00,72.9,59.6,29.89,WSW,245,5.0,-999.0,63,0.00,,,0.00,Wunderground v.1.15,2013-02-18 18:45:00,
2013-02-18 12:52:00,72.9,59.1,29.89,SW,236,5.0,-999.0,62,0.00,,,0.00,Wunderground v.1.15,2013-02-18 18:52:00,
2013-02-18 12:58:00,73.3,59.9,29.88,SW,229,5.0,-999.0,63,0.00,,,0.00,Wunderground v.1.15,2013-02-18 18:58:00,
2013-02-18 13:04:00,73.6,58.9,29.88,SW,235,5.0,-999.0,60,0.00,,,0.00,Wunderground v.1.15,2013-02-18 19:04:00,
2013-02-18 13:10:00,73.8,58.1,29.88,West,264,5.0,-999.0,58,0.00,,,0.00,Wunderground v.1.15,2013-02-18 19:10:00,
2013-02-18 13:16:00,73.6,58.4,29.88,WSW,245,6.0,-999.0,59,0.00,,,0.00,Wunderground v.1.15,2013-02-18 19:16:00,
2013-02-18 13:22:00,74.1,58.9,29.87,WSW,248,5.0,-999.0,59,0.00,,,0.00,Wunderground v.1.15,2013-02-18 19:22:00,
2013-02-18 13:30:00,74.9,58.6,29.86,WSW,249,5.0,-999.0,57,0.00,,,0.00,Wunderground v.1.15,2013-02-18 19:30:00,
2013-02-18 13:36:00,74.6,57.9,29.86,SW,228,7.0,-999.0,56,0.00,,,0.00,Wunderground v.1.15,2013-02-18 19:36:00,
2013-02-18 13:42:00,74.9,57.6,29.86,SW,232,7.0,-999.0,55,0.00,,,0.00,Wunderground v.1.15,2013-02-18 19:42:00,
2013-02-18 13:48:00,74.8,57.5,29.86,West,263,6.0,-999.0,55,0.00,,,0.00,Wunderground v.1.15,2013-02-18 19:48:00,
2013-02-18 13:54:00,75.2,56.4,29.85,West,267,5.0,-999.0,52,0.00,,,0.00,Wunderground v.1.15,2013-02-18 19:54:00,
2013-02-18 14:00:00,75.6,56.2,29.85,NW,323,4.0,-999.0,51,0.00,,,0.00,Wunderground v.1.15,2013-02-18 20:00:00,
2013-02-18 14:06:00,75.7,56.3,29.85,WSW,246,4.0,-999.0,51,0.00,,,0.00,Wunderground v.1.15,2013-02-18 20:06:00,
2013-02-18 14:11:00,76.1,56.7,29.84,WSW,252,5.0,-999.0,51,0.00,,,0.00,Wunderground v.1.15,2013-02-18 20:11:00,
2013-02-18 14:18:00,76.4,56.4,29.84,WNW,286,5.0,-999.0,50,0.00,,,0.00,Wunderground v.1.15,2013-02-18 20:18:00,
2013-02-18 14:24:00,76.6,55.4,29.84,SW,214,5.0,-999.0,48,0.00,,,0.00,Wunderground v.1.15,2013-02-18 20:24:00,
2013-02-18 14:30:00,76.9,55.7,29.84,West,276,5.0,-999.0,48,0.00,,,0.00,Wunderground v.1.15,2013-02-18 20:30:00,
2013-02-18 14:36:00,76.7,55.5,29.84,West,279,5.0,-999.0,48,0.00,,,0.00,Wunderground v.1.15,2013-02-18 20:36:00,
2013-02-18 14:42:00,77.0,55.2,29.84,SW,222,5.0,-999.0,47,0.00,,,0.00,Wunderground v.1.15,2013-02-18 20:42:00,
2013-02-18 14:48:00,77.6,55.2,29.83,WNW,288,4.0,-999.0,46,0.00,,,0.00,Wunderground v.1.15,2013-02-18 20:48:00,
2013-02-18 14:54:00,77.7,54.7,29.84,West,272,4.0,-999.0,45,0.00,,,0.00,Wunderground v.1.15,2013-02-18 20:54:00,
2013-02-18 14:59:00,77.5,53.9,29.83,SSW,208,5.0,-999.0,44,0.00,,,0.00,Wunderground v.1.15,2013-02-18 20:59:00,
2013-02-18 15:06:00,78.1,53.1,29.83,West,274,5.0,-999.0,42,0.00,,,0.00,Wunderground v.1.15,2013-02-18 21:06:00,
2013-02-18 15:12:00,78.5,52.8,29.83,WSW,255,4.0,-999.0,41,0.00,,,0.00,Wunderground v.1.15,2013-02-18 21:12:00,
2013-02-18 15:18:00,78.2,53.2,29.83,WSW,252,4.0,-999.0,42,0.00,,,0.00,Wunderground v.1.15,2013-02-18 21:18:00,
2013-02-18 15:24:00,78.5,52.2,29.82,West,274,5.0,-999.0,40,0.00,,,0.00,Wunderground v.1.15,2013-02-18 21:24:00,
2013-02-18 15:30:00,78.5,52.8,29.82,WSW,244,4.0,-999.0,41,0.00,,,0.00,Wunderground v.1.15,2013-02-18 21:30:00,
2013-02-18 15:36:00,78.7,52.3,29.82,West,280,4.0,-999.0,40,0.00,,,0.00,Wunderground v.1.15,2013-02-18 21:36:00,
2013-02-18 15:42:00,78.9,51.1,29.82,WNW,286,5.0,-999.0,38,0.00,,,0.00,Wunderground v.1.15,2013-02-18 21:42:00,
2013-02-18 15:48:00,78.9,50.4,29.82,WSW,252,4.0,-999.0,37,0.00,,,0.00,Wunderground v.1.15,2013-02-18 21:48:00,
2013-02-18 15:54:00,79.0,51.2,29.82,WSW,238,4.0,-999.0,38,0.00,,,0.00,Wunderground v.1.15,2013-02-18 21:54:00,
2013-02-18 16:00:00,78.8,51.0,29.82,SW,219,5.0,-999.0,38,0.00,,,0.00,Wunderground v.1.15,2013-02-18 22:00:00,
2013-02-18 16:06:00,79.4,51.6,29.82,WNW,301,5.0,-999.0,38,0.00,,,0.00,Wunderground v.1.15,2013-02-18 22:06:00,
2013-02-18 16:12:00,79.3,50.8,29.82,West,279,5.0,-999.0,37,0.00,,,0.00,Wunderground v.1.15,2013-02-18 22:12:00,
2013-02-18 16:18:00,79.7,50.4,29.82,West,262,4.0,-999.0,36,0.00,,,0.00,Wunderground v.1.15,2013-02-18 22:18:00,
2013-02-18 16:24:00,79.9,51.3,29.82,SSW,207,4.0,-999.0,37,0.00,,,0.00,Wunderground v.1.15,2013-02-18 22:24:00,
2013-02-18 16:30:00,79.8,50.5,29.82,WSW,242,5.0,-999.0,36,0.00,,,0.00,Wunderground v.1.15,2013-02-18 22:30:00,
2013-02-18 16:36:00,80.1,50.7,29.82,SW,218,5.0,-999.0,36,0.00,,,0.00,Wunderground v.1.15,2013-02-18 22:36:00,
2013-02-18 16:42:00,79.9,49.8,29.82,West,259,5.0,-999.0,35,0.00,,,0.00,Wunderground v.1.15,2013-02-18 22:42:00,
2013-02-18 16:48:00,79.7,49.6,29.82,SW,231,5.0,-999.0,35,0.00,,,0.00,Wunderground v.1.15,2013-02-18 22:48:00,
2013-02-18 16:54:00,79.8,48.1,29.82,WNW,303,5.0,-999.0,33,0.00,,,0.00,Wunderground v.1.15,2013-02-18 22:54:00,
2013-02-18 17:00:00,79.6,48.0,29.82,West,274,5.0,-999.0,33,0.00,,,0.00,Wunderground v.1.15,2013-02-18 23:00:00,
2013-02-18 17:06:00,79.6,48.0,29.82,WNW,290,4.0,-999.0,33,0.00,,,0.00,Wunderground v.1.15,2013-02-18 23:06:00,
2013-02-18 17:14:00,79.9,49.8,29.82,SW,219,4.0,-999.0,35,0.00,,,0.00,Wunderground v.1.15,2013-02-18 23:14:00,
2013-02-18 17:20:00,79.6,45.4,29.82,West,263,3.0,-999.0,30,0.00,,,0.00,Wunderground v.1.15,2013-02-18 23:20:00,
2013-02-18 17:26:00,79.7,42.8,29.82,West,267,4.0,-999.0,27,0.00,,,0.00,Wunderground v.1.15,2013-02-18 23:26:00,
2013-02-18 17:32:00,79.8,42.8,29.82,West,269,3.0,-999.0,27,0.00,,,0.00,Wunderground v.1.15,2013-02-18 23:32:00,
2013-02-18 17:38:00,79.7,43.7,29.83,West,267,2.0,-999.0,28,0.00,,,0.00,Wunderground v.1.15,2013-02-18 23:38:00,
2013-02-18 17:44:00,79.4,48.6,29.83,SE,128,2.0,-999.0,34,0.00,,,0.00,Wunderground v.1.15,2013-02-18 23:44:00,
2013-02-18 17:50:00,79.0,49.0,29.83,South,174,2.0,-999.0,35,0.00,,,0.00,Wunderground v.1.15,2013-02-18 23:50:00,
2013-02-18 17:56:00,78.6,48.7,29.84,West,262,1.0,-999.0,35,0.00,,,0.00,Wunderground v.1.15,2013-02-18 23:56:00,
2013-02-18 18:04:00,78.0,48.1,29.84,WSW,251,2.0,-999.0,35,0.00,,,0.00,Wunderground v.1.15,2013-02-19 00:04:00,
2013-02-18 18:10:00,77.2,47.4,29.84,SW,232,1.0,-999.0,35,0.00,,,0.00,Wunderground v.1.15,2013-02-19 00:10:00,
2013-02-18 18:16:00,76.6,48.4,29.84,SW,236,1.0,-999.0,37,0.00,,,0.00,Wunderground v.1.15,2013-02-19 00:16:00,
2013-02-18 18:22:00,75.9,48.5,29.84,SW,236,0.0,-999.0,38,0.00,,,0.00,Wunderground v.1.15,2013-02-19 00:22:00,
2013-02-18 18:28:00,75.0,48.4,29.85,SW,236,0.0,-999.0,39,0.00,,,0.00,Wunderground v.1.15,2013-02-19 00:28:00,
2013-02-18 18:34:00,74.2,48.3,29.85,SW,236,0.0,-999.0,40,0.00,,,0.00,Wunderground v.1.15,2013-02-19 00:34:00,
2013-02-18 18:40:00,73.5,48.4,29.85,SW,236,0.0,-999.0,41,0.00,,,0.00,Wunderground v.1.15,2013-02-19 00:40:00,
2013-02-18 18:46:00,72.4,48.0,29.86,SW,236,0.0,-999.0,42,0.00,,,0.00,Wunderground v.1.15,2013-02-19 00:46:00,
2013-02-18 18:52:00,71.5,48.4,29.86,SW,236,0.0,-999.0,44,0.00,,,0.00,Wunderground v.1.15,2013-02-19 00:52:00,
2013-02-18 18:58:00,71.6,48.5,29.87,NW,324,1.0,-999.0,44,0.00,,,0.00,Wunderground v.1.15,2013-02-19 00:58:00,
2013-02-18 19:04:00,71.8,47.5,29.87,NNW,338,1.0,-999.0,42,0.00,,,0.00,Wunderground v.1.15,2013-02-19 01:04:00,
2013-02-18 19:10:00,71.9,43.5,29.88,NNW,333,1.0,-999.0,36,0.00,,,0.00,Wunderground v.1.15,2013-02-19 01:10:00,
2013-02-18 19:16:00,71.8,42.7,29.88,NNW,336,1.0,-999.0,35,0.00,,,0.00,Wunderground v.1.15,2013-02-19 01:16:00,
2013-02-18 19:22:00,71.3,39.9,29.89,NNW,338,0.0,-999.0,32,0.00,,,0.00,Wunderground v.1.15,2013-02-19 01:22:00,
2013-02-18 19:28:00,70.9,39.6,29.89,NNW,337,0.0,-999.0,32,0.00,,,0.00,Wunderground v.1.15,2013-02-19 01:28:00,
2013-02-18 19:34:00,70.4,37.5,29.90,NNE,25,0.0,-999.0,30,0.00,,,0.00,Wunderground v.1.15,2013-02-19 01:34:00,
2013-02-18 19:40:00,69.9,37.0,29.90,NNE,26,0.0,-999.0,30,0.00,,,0.00,Wunderground v.1.15,2013-02-19 01:40:00,
2013-02-18 19:46:00,69.4,34.9,29.90,NE,51,1.0,-999.0,28,0.00,,,0.00,Wunderground v.1.15,2013-02-19 01:46:00,
2013-02-18 19:52:00,68.9,36.2,29.91,NE,51,0.0,-999.0,30,0.00,,,0.00,Wunderground v.1.15,2013-02-19 01:52:00,
2013-02-18 19:58:00,68.4,34.0,29.91,NNW,332,0.0,-999.0,28,0.00,,,0.00,Wunderground v.1.15,2013-02-19 01:58:00,
2013-02-18 20:04:00,68.5,32.2,29.91,North,3,1.0,-999.0,26,0.00,,,0.00,Wunderground v.1.15,2013-02-19 02:04:00,
2013-02-18 20:10:00,69.1,28.6,29.92,NNW,335,2.0,-999.0,22,0.00,,,0.00,Wunderground v.1.15,2013-02-19 02:10:00,
2013-02-18 20:16:00,68.9,27.3,29.93,North,4,2.0,-999.0,21,0.00,,,0.00,Wunderground v.1.15,2013-02-19 02:16:00,
2013-02-18 20:21:00,68.6,27.1,29.92,NNE,19,1.0,-999.0,21,0.00,,,0.00,Wunderground v.1.15,2013-02-19 02:21:00,
2013-02-18 20:28:00,68.4,26.9,29.93,NE,35,1.0,-999.0,21,0.00,,,0.00,Wunderground v.1.15,2013-02-19 02:28:00,
2013-02-18 20:34:00,68.8,26.1,29.93,NE,41,1.0,-999.0,20,0.00,,,0.00,Wunderground v.1.15,2013-02-19 02:34:00,
2013-02-18 20:40:00,69.0,26.2,29.94,North,359,1.0,-999.0,20,0.00,,,0.00,Wunderground v.1.15,2013-02-19 02:40:00,
2013-02-18 20:46:00,69.0,26.2,29.94,NNE,29,2.0,-999.0,20,0.00,,,0.00,Wunderground v.1.15,2013-02-19 02:46:00,
2013-02-18 20:52:00,69.0,26.2,29.95,ENE,67,2.0,-999.0,20,0.00,,,0.00,Wunderground v.1.15,2013-02-19 02:52:00,
2013-02-18 20:58:00,69.0,26.2,29.95,ENE,60,2.0,-999.0,20,0.00,,,0.00,Wunderground v.1.15,2013-02-19 02:58:00,
2013-02-18 21:04:00,68.7,26.0,29.96,NE,46,3.0,-999.0,20,0.00,,,0.00,Wunderground v.1.15,2013-02-19 03:04:00,
2013-02-18 21:14:00,68.2,25.6,29.97,NE,45,2.0,-999.0,20,0.00,,,0.00,Wunderground v.1.15,2013-02-19 03:14:00,
2013-02-18 21:19:00,67.7,26.3,29.97,ENE,70,3.0,-999.0,21,0.00,,,0.00,Wunderground v.1.15,2013-02-19 03:19:00,
2013-02-18 21:26:00,67.2,25.9,29.97,NE,34,3.0,-999.0,21,0.00,,,0.00,Wunderground v.1.15,2013-02-19 03:26:00,
2013-02-18 21:32:00,67.0,25.7,29.98,NNE,25,4.0,-999.0,21,0.00,,,0.00,Wunderground v.1.15,2013-02-19 03:32:00,
2013-02-18 21:38:00,66.9,26.8,29.99,NW,319,5.0,-999.0,22,0.00,,,0.00,Wunderground v.1.15,2013-02-19 03:38:00,
2013-02-18 21:44:00,66.9,26.8,29.99,North,357,6.0,-999.0,22,0.00,,,0.00,Wunderground v.1.15,2013-02-19 03:44:00,
2013-02-18 21:50:00,66.6,27.6,30.00,NE,46,6.0,-999.0,23,0.00,,,0.00,Wunderground v.1.15,2013-02-19 03:50:00,
2013-02-18 21:56:00,66.1,27.2,30.00,ENE,65,5.0,-999.0,23,0.00,,,0.00,Wunderground v.1.15,2013-02-19 03:56:00,
2013-02-18 22:04:00,65.3,27.5,30.00,ENE,63,4.0,-999.0,24,0.00,,,0.00,Wunderground v.1.15,2013-02-19 04:04:00,
2013-02-18 22:10:00,64.8,28.1,30.01,ENE,60,4.0,-999.0,25,0.00,,,0.00,Wunderground v.1.15,2013-02-19 04:10:00,
2013-02-18 22:16:00,64.7,29.0,30.00,NE,54,6.0,-999.0,26,0.00,,,0.00,Wunderground v.1.15,2013-02-19 04:16:00,
2013-02-18 22:21:00,64.5,29.7,30.01,NE,55,7.0,-999.0,27,0.00,,,0.00,Wunderground v.1.15,2013-02-19 04:21:00,
2013-02-18 22:28:00,64.2,31.3,30.01,NNE,25,5.0,-999.0,29,0.00,,,0.00,Wunderground v.1.15,2013-02-19 04:28:00,
2013-02-18 22:34:00,64.0,31.1,30.01,ENE,57,6.0,-999.0,29,0.00,,,0.00,Wunderground v.1.15,2013-02-19 04:34:00,
2013-02-18 22:40:00,63.6,31.6,30.01,NE,44,7.0,-999.0,30,0.00,,,0.00,Wunderground v.1.15,2013-02-19 04:40:00,
2013-02-18 22:46:00,63.3,32.1,30.01,NE,51,7.0,-999.0,31,0.00,,,0.00,Wunderground v.1.15,2013-02-19 04:46:00,
2013-02-18 22:52:00,63.1,31.9,30.01,ENE,58,8.0,-999.0,31,0.00,,,0.00,Wunderground v.1.15,2013-02-19 04:52:00,
2013-02-18 22:58:00,62.8,32.5,30.01,ENE,67,8.0,-999.0,32,0.00,,,0.00,Wunderground v.1.15,2013-02-19 04:58:00,
2013-02-18 23:00:00,62.6,32.3,30.01,East,86,7.0,-999.0,32,0.00,,,0.00,Wunderground v.1.15,2013-02-19 05:00:00,
2013-02-18 23:06:00,62.2,32.7,30.01,ENE,64,6.0,-999.0,33,0.00,,,0.00,Wunderground v.1.15,2013-02-19 05:06:00,
2013-02-18 23:12:00,62.0,32.5,30.02,ENE,65,7.0,-999.0,33,0.00,,,0.00,Wunderground v.1.15,2013-02-19 05:12:00,
2013-02-18 23:18:00,61.9,32.5,30.02,ENE,75,7.0,-999.0,33,0.00,,,0.00,Wunderground v.1.15,2013-02-19 05:18:00,
2013-02-18 23:24:00,61.6,32.9,30.01,NNE,31,8.0,-999.0,34,0.00,,,0.00,Wunderground v.1.15,2013-02-19 05:24:00,
2013-02-18 23:30:00,61.4,32.8,30.02,ENE,57,8.0,-999.0,34,0.00,,,0.00,Wunderground v.1.15,2013-02-19 05:30:00,
2013-02-18 23:34:00,61.3,32.7,30.02,NE,51,7.0,-999.0,34,0.00,,,0.00,Wunderground v.1.15,2013-02-19 05:34:00,
2013-02-18 23:40:00,61.1,32.5,30.02,NNE,27,8.0,-999.0,34,0.00,,,0.00,Wunderground v.1.15,2013-02-19 05:40:00,
2013-02-18 23:46:00,60.9,32.3,30.02,NE,50,9.0,-999.0,34,0.00,,,0.00,Wunderground v.1.15,2013-02-19 05:46:00,
2013-02-18 23:52:00,60.6,32.8,30.02,East,92,8.0,-999.0,35,0.00,,,0.00,Wunderground v.1.15,2013-02-19 05:52:00,
2013-02-18 23:58:00,60.3,32.5,30.02,ENE,64,6.0,-999.0,35,0.00,,,0.00,Wunderground v.1.15,2013-02-19 05:58:00,